Terminal Aerodrome Forecast
Issued by NWS Omaha/Valley, NE

Home | Current Version | Previous Version | Graphics & Text | Print | Product List | Glossary On
Versions: 1 2 3 4 5 6 7 8 9 10 11 12 13 14 15 16 17 18 19 20 21 22 23 24 25 26 27 28 29 30 31 32 33 34 35 36 37 38 39 40 41 42 43
000
FTUS43 KOAX 152320
TAFOFK
TAF
KOFK 152320Z 1600/1624 33027G35KT 4SM -SN OVC015
      TEMPO 1600/1604 3/4SM -SN BLSN OVC007
     FM160800 33020G26KT P6SM OVC015
     FM161700 33011KT P6SM BKN250=

USA.gov is the U.S. government's official web portal to all federal, state and local government web resources and services.